Terminal Aerodrome Forecast
Issued by NWS

Home | Current Version | Previous Version | Text Only | Print | Product List | Glossary On
Versions: 1 2 3 4 5 6 7 8 9 10 11 12 13 14 15 16 17 18 19 20 21 22 23 24 25 26
763
FTUS46 KLOX 220946 AAA
TAFPRB
TAF AMD
KPRB 220946Z 2210/2306 14008KT P6SM -RA SCT025 OVC040
     FM221200 16017G29KT 6SM -RA BR BKN025 OVC050
     FM221500 17014G26KT 3SM +RA BR BKN012 OVC025
     FM221900 19015G25KT 4SM -RA BKN025 OVC040
     FM222100 22010G18KT 6SM -SHRA BR BKN025 OVC050
     FM230100 16012KT P6SM -RA OVC015 PROB30 2303/2306 P6SM -TSRA
      BKN015CB=

USA.gov is the U.S. government's official web portal to all federal, state and local government web resources and services.